Time,TemperatureF,DewpointF,PressureIn,WindDirection,WindDirectionDegrees,WindSpeedMPH,WindSpeedGustMPH,Humidity,HourlyPrecipIn,Conditions,Clouds,dailyrainin,SoftwareType,DateUTC
2013-05-08 00:02:00,53.0,52.0,30.19,NE,50,7.0,9.0,98,-99.99,,,-99.99,,2013-05-08 04:02:00,
2013-05-08 00:12:00,53.0,52.0,30.19,NE,50,7.0,9.0,98,-99.99,,,-99.99,,2013-05-08 04:12:00,
2013-05-08 00:22:00,53.0,52.0,30.19,NE,50,7.0,7.0,97,-99.99,,,-99.99,,2013-05-08 04:22:00,
2013-05-08 00:32:00,53.0,52.0,30.19,NE,50,7.0,7.0,97,-99.99,,,-99.99,,2013-05-08 04:32:00,
2013-05-08 00:42:00,53.0,52.0,30.19,NE,50,7.0,9.0,97,-99.99,,,-99.99,,2013-05-08 04:42:00,
2013-05-08 00:52:00,53.0,52.0,30.19,ENE,70,9.0,9.0,97,-99.99,,,-99.99,,2013-05-08 04:52:00,
2013-05-08 01:02:00,53.0,52.0,30.18,ENE,60,9.0,9.0,97,-99.99,,,-99.99,,2013-05-08 05:02:00,
2013-05-08 01:12:00,53.0,52.0,30.18,ENE,60,9.0,9.0,97,-99.99,,,-99.99,,2013-05-08 05:12:00,
2013-05-08 01:22:00,53.0,52.0,30.18,ENE,60,7.0,9.0,98,-99.99,,,-99.99,,2013-05-08 05:22:00,
2013-05-08 01:32:00,53.0,52.0,30.18,ENE,60,7.0,9.0,98,-99.99,,,-99.99,,2013-05-08 05:32:00,
2013-05-08 01:42:00,53.0,52.0,30.18,ENE,70,7.0,7.0,98,-99.99,,,-99.99,,2013-05-08 05:42:00,
2013-05-08 01:52:00,53.0,53.0,30.17,ENE,70,7.0,9.0,98,-99.99,,,-99.99,,2013-05-08 05:52:00,
2013-05-08 02:01:00,53.0,53.0,30.16,ENE,70,9.0,9.0,98,-99.99,,,-99.99,,2013-05-08 06:01:00,
2013-05-08 02:11:00,53.0,53.0,30.16,ENE,70,9.0,9.0,98,-99.99,,,-99.99,,2013-05-08 06:11:00,
2013-05-08 02:21:00,53.0,52.0,30.16,ENE,60,4.0,9.0,98,-99.99,,,-99.99,,2013-05-08 06:21:00,
2013-05-08 02:31:00,53.0,52.0,30.16,ENE,60,4.0,9.0,98,-99.99,,,-99.99,,2013-05-08 06:31:00,
2013-05-08 02:41:00,53.0,53.0,30.16,East,80,4.0,9.0,98,-99.99,,,-99.99,,2013-05-08 06:41:00,
2013-05-08 02:51:00,54.0,53.0,30.16,ENE,70,7.0,11.0,98,-99.99,,,-99.99,,2013-05-08 06:51:00,
2013-05-08 03:01:00,53.0,53.0,30.16,ENE,70,7.0,9.0,98,-99.99,,,-99.99,,2013-05-08 07:01:00,
2013-05-08 03:11:00,53.0,53.0,30.16,ENE,70,7.0,9.0,98,-99.99,,,-99.99,,2013-05-08 07:11:00,
2013-05-08 03:21:00,52.0,52.0,30.16,NE,50,4.0,4.0,98,-99.99,,,-99.99,,2013-05-08 07:21:00,
2013-05-08 03:31:00,52.0,52.0,30.16,NE,50,4.0,4.0,98,-99.99,,,-99.99,,2013-05-08 07:31:00,
2013-05-08 03:41:00,52.0,52.0,30.15,ENE,60,4.0,7.0,98,-99.99,,,-99.99,,2013-05-08 07:41:00,
2013-05-08 03:52:00,52.0,52.0,30.15,ENE,60,7.0,7.0,98,-99.99,,,-99.99,,2013-05-08 07:52:00,
2013-05-08 04:01:00,52.0,52.0,30.14,ENE,60,7.0,7.0,98,-99.99,,,-99.99,,2013-05-08 08:01:00,
2013-05-08 04:11:00,52.0,52.0,30.14,ENE,60,7.0,7.0,98,-99.99,,,-99.99,,2013-05-08 08:11:00,
2013-05-08 04:21:00,52.0,52.0,30.14,ENE,60,7.0,9.0,98,-99.99,,,-99.99,,2013-05-08 08:21:00,
2013-05-08 04:31:00,52.0,52.0,30.14,ENE,60,7.0,9.0,98,-99.99,,,-99.99,,2013-05-08 08:31:00,
2013-05-08 04:42:00,52.0,52.0,30.14,NE,50,7.0,9.0,98,-99.99,,,-99.99,,2013-05-08 08:42:00,
2013-05-08 04:51:00,52.0,52.0,30.14,ENE,60,7.0,9.0,98,-99.99,,,-99.99,,2013-05-08 08:51:00,
2013-05-08 05:01:00,52.0,52.0,30.14,ENE,70,9.0,9.0,98,-99.99,,,-99.99,,2013-05-08 09:01:00,
2013-05-08 05:11:00,52.0,52.0,30.14,ENE,70,9.0,9.0,98,-99.99,,,-99.99,,2013-05-08 09:11:00,
2013-05-08 05:21:00,53.0,53.0,30.14,ENE,70,7.0,11.0,98,-99.99,,,-99.99,,2013-05-08 09:21:00,
2013-05-08 05:32:00,53.0,53.0,30.14,ENE,70,7.0,11.0,98,-99.99,,,-99.99,,2013-05-08 09:32:00,
2013-05-08 05:42:00,54.0,53.0,30.14,ENE,70,7.0,9.0,99,-99.99,,,-99.99,,2013-05-08 09:42:00,
2013-05-08 05:52:00,54.0,53.0,30.14,ENE,60,7.0,9.0,98,-99.99,,,-99.99,,2013-05-08 09:52:00,
2013-05-08 06:02:00,53.0,53.0,30.14,ENE,60,9.0,11.0,98,-99.99,,,-99.99,,2013-05-08 10:02:00,
2013-05-08 06:12:00,53.0,53.0,30.14,ENE,60,9.0,11.0,98,-99.99,,,-99.99,,2013-05-08 10:12:00,
2013-05-08 06:22:00,53.0,53.0,30.14,ENE,70,11.0,13.0,98,-99.99,,,-99.99,,2013-05-08 10:22:00,
2013-05-08 06:32:00,53.0,53.0,30.14,ENE,70,11.0,13.0,98,-99.99,,,-99.99,,2013-05-08 10:32:00,
2013-05-08 06:42:00,53.0,53.0,30.15,ENE,70,11.0,13.0,98,-99.99,,,-99.99,,2013-05-08 10:42:00,
2013-05-08 06:52:00,54.0,53.0,30.15,ENE,70,11.0,13.0,98,-99.99,,,-99.99,,2013-05-08 10:52:00,
2013-05-08 07:02:00,54.0,53.0,30.15,ENE,70,11.0,13.0,98,-99.99,,,-99.99,,2013-05-08 11:02:00,
2013-05-08 07:11:00,54.0,54.0,30.15,ENE,70,11.0,16.0,99,-99.99,,,-99.99,,2013-05-08 11:11:00,
2013-05-08 07:22:00,54.0,54.0,30.16,ENE,70,11.0,13.0,98,-99.99,,,-99.99,,2013-05-08 11:22:00,
2013-05-08 07:32:00,54.0,54.0,30.16,ENE,70,11.0,13.0,98,-99.99,,,-99.99,,2013-05-08 11:32:00,
2013-05-08 07:41:00,54.0,53.0,30.16,ENE,70,11.0,13.0,98,-99.99,,,-99.99,,2013-05-08 11:41:00,
2013-05-08 07:51:00,54.0,53.0,30.17,ENE,60,9.0,11.0,98,-99.99,,,-99.99,,2013-05-08 11:51:00,
2013-05-08 08:01:00,54.0,53.0,30.17,ENE,60,9.0,11.0,97,-99.99,,,-99.99,,2013-05-08 12:01:00,
2013-05-08 08:11:00,54.0,53.0,30.17,ENE,60,9.0,11.0,97,-99.99,,,-99.99,,2013-05-08 12:11:00,
2013-05-08 08:21:00,54.0,54.0,30.17,ENE,60,11.0,13.0,96,-99.99,,,-99.99,,2013-05-08 12:21:00,
2013-05-08 08:31:00,54.0,54.0,30.17,ENE,60,11.0,13.0,96,-99.99,,,-99.99,,2013-05-08 12:31:00,
2013-05-08 08:41:00,55.0,54.0,30.17,ENE,60,11.0,13.0,96,-99.99,,,-99.99,,2013-05-08 12:41:00,
2013-05-08 08:51:00,56.0,54.0,30.17,ENE,60,11.0,13.0,95,-99.99,,,-99.99,,2013-05-08 12:51:00,
2013-05-08 09:01:00,56.0,54.0,30.17,ENE,60,11.0,13.0,95,-99.99,,,-99.99,,2013-05-08 13:01:00,
2013-05-08 09:11:00,56.0,54.0,30.17,ENE,70,11.0,13.0,94,-99.99,,,-99.99,,2013-05-08 13:11:00,
2013-05-08 09:21:00,57.0,55.0,30.17,East,80,11.0,13.0,94,-99.99,,,-99.99,,2013-05-08 13:21:00,
2013-05-08 09:32:00,57.0,55.0,30.17,East,80,11.0,13.0,94,-99.99,,,-99.99,,2013-05-08 13:32:00,
2013-05-08 09:42:00,56.0,55.0,30.17,East,80,13.0,18.0,94,-99.99,,,-99.99,,2013-05-08 13:42:00,
2013-05-08 09:52:00,56.0,54.0,30.17,East,80,13.0,18.0,94,-99.99,,,-99.99,,2013-05-08 13:52:00,
2013-05-08 10:01:00,56.0,55.0,30.17,East,90,13.0,16.0,94,-99.99,,,-99.99,,2013-05-08 14:01:00,
2013-05-08 10:11:00,56.0,55.0,30.17,East,90,13.0,16.0,94,-99.99,,,-99.99,,2013-05-08 14:11:00,
2013-05-08 10:21:00,57.0,56.0,30.17,East,100,16.0,20.0,94,-99.99,,,-99.99,,2013-05-08 14:21:00,
2013-05-08 10:31:00,57.0,56.0,30.17,East,100,16.0,20.0,94,-99.99,,,-99.99,,2013-05-08 14:31:00,
2013-05-08 10:41:00,57.0,56.0,30.17,East,100,13.0,20.0,94,-99.99,,,-99.99,,2013-05-08 14:41:00,
2013-05-08 10:51:00,58.0,56.0,30.17,East,100,16.0,20.0,93,-99.99,,,-99.99,,2013-05-08 14:51:00,
2013-05-08 11:01:00,58.0,56.0,30.17,East,100,16.0,20.0,93,-99.99,,,-99.99,,2013-05-08 15:01:00,
2013-05-08 11:11:00,58.0,56.0,30.17,East,100,16.0,20.0,93,-99.99,,,-99.99,,2013-05-08 15:11:00,
2013-05-08 11:21:00,58.0,56.0,30.17,East,100,16.0,20.0,93,-99.99,,,-99.99,,2013-05-08 15:21:00,
2013-05-08 11:32:00,58.0,56.0,30.17,East,100,16.0,20.0,93,-99.99,,,-99.99,,2013-05-08 15:32:00,
2013-05-08 11:42:00,58.0,56.0,30.17,East,100,16.0,22.0,93,-99.99,,,-99.99,,2013-05-08 15:42:00,
2013-05-08 11:52:00,58.0,56.0,30.16,East,100,18.0,22.0,94,-99.99,,,-99.99,,2013-05-08 15:52:00,
2013-05-08 12:02:00,58.0,56.0,30.16,East,100,18.0,22.0,94,-99.99,,,-99.99,,2013-05-08 16:02:00,
2013-05-08 12:12:00,58.0,56.0,30.15,East,100,18.0,25.0,94,-99.99,,,-99.99,,2013-05-08 16:12:00,
2013-05-08 12:23:00,59.0,57.0,30.14,East,100,20.0,29.0,93,-99.99,,,-99.99,,2013-05-08 16:23:00,
2013-05-08 12:32:00,59.0,57.0,30.14,East,100,20.0,29.0,93,-99.99,,,-99.99,,2013-05-08 16:32:00,
2013-05-08 12:42:00,59.0,57.0,30.14,ESE,110,20.0,27.0,92,-99.99,,,-99.99,,2013-05-08 16:42:00,
2013-05-08 12:52:00,59.0,56.0,30.14,ESE,110,20.0,29.0,91,-99.99,,,-99.99,,2013-05-08 16:52:00,
2013-05-08 13:02:00,58.0,56.0,30.13,ESE,110,20.0,29.0,93,-99.99,,,-99.99,,2013-05-08 17:02:00,
2013-05-08 13:11:00,58.0,56.0,30.13,ESE,110,20.0,29.0,93,-99.99,,,-99.99,,2013-05-08 17:11:00,
2013-05-08 13:22:00,59.0,57.0,30.13,ESE,110,20.0,27.0,93,-99.99,,,-99.99,,2013-05-08 17:22:00,
2013-05-08 13:31:00,59.0,57.0,30.13,ESE,110,20.0,27.0,93,-99.99,,,-99.99,,2013-05-08 17:31:00,
2013-05-08 13:41:00,59.0,57.0,30.13,ESE,110,20.0,27.0,93,-99.99,,,-99.99,,2013-05-08 17:41:00,
2013-05-08 13:52:00,58.0,56.0,30.11,East,100,20.0,29.0,92,-99.99,,,-99.99,,2013-05-08 17:52:00,
2013-05-08 14:01:00,58.0,56.0,30.11,East,100,20.0,29.0,92,-99.99,,,-99.99,,2013-05-08 18:01:00,
2013-05-08 14:11:00,59.0,56.0,30.12,East,100,20.0,29.0,91,-99.99,,,-99.99,,2013-05-08 18:11:00,
2013-05-08 14:21:00,59.0,56.0,30.11,East,100,20.0,27.0,91,-99.99,,,-99.99,,2013-05-08 18:21:00,
2013-05-08 14:31:00,59.0,56.0,30.11,East,100,20.0,27.0,91,-99.99,,,-99.99,,2013-05-08 18:31:00,
2013-05-08 14:41:00,58.0,56.0,30.10,ESE,110,20.0,31.0,93,-99.99,,,-99.99,,2013-05-08 18:41:00,
2013-05-08 14:51:00,56.0,55.0,30.11,ESE,110,18.0,25.0,95,-99.99,,,-99.99,,2013-05-08 18:51:00,
2013-05-08 15:01:00,56.0,55.0,30.10,ESE,110,18.0,22.0,96,-99.99,,,-99.99,,2013-05-08 19:01:00,
2013-05-08 15:11:00,56.0,55.0,30.10,ESE,110,18.0,22.0,96,-99.99,,,-99.99,,2013-05-08 19:11:00,
2013-05-08 15:21:00,55.0,54.0,30.10,ESE,110,18.0,22.0,96,-99.99,,,-99.99,,2013-05-08 19:21:00,
2013-05-08 15:31:00,55.0,54.0,30.10,ESE,110,18.0,22.0,96,-99.99,,,-99.99,,2013-05-08 19:31:00,
2013-05-08 15:41:00,55.0,54.0,30.10,ESE,110,18.0,25.0,96,-99.99,,,-99.99,,2013-05-08 19:41:00,
2013-05-08 15:52:00,56.0,54.0,30.09,ESE,110,18.0,25.0,96,-99.99,,,-99.99,,2013-05-08 19:52:00,
2013-05-08 16:01:00,56.0,54.0,30.10,ESE,110,18.0,27.0,96,-99.99,,,-99.99,,2013-05-08 20:01:00,
2013-05-08 16:11:00,56.0,54.0,30.10,ESE,110,18.0,27.0,96,-99.99,,,-99.99,,2013-05-08 20:11:00,
2013-05-08 16:21:00,55.0,54.0,30.10,ESE,110,18.0,27.0,96,-99.99,,,-99.99,,2013-05-08 20:21:00,
2013-05-08 16:31:00,55.0,54.0,30.10,ESE,110,18.0,25.0,97,-99.99,,,-99.99,,2013-05-08 20:31:00,
2013-05-08 16:41:00,55.0,54.0,30.10,ESE,110,18.0,25.0,97,-99.99,,,-99.99,,2013-05-08 20:41:00,
2013-05-08 16:51:00,54.0,54.0,30.11,ESE,110,16.0,22.0,97,-99.99,,,-99.99,,2013-05-08 20:51:00,
2013-05-08 17:01:00,54.0,54.0,30.11,ESE,110,16.0,22.0,97,-99.99,,,-99.99,,2013-05-08 21:01:00,
2013-05-08 17:11:00,55.0,54.0,30.10,ESE,110,16.0,20.0,97,-99.99,,,-99.99,,2013-05-08 21:11:00,
2013-05-08 17:21:00,55.0,54.0,30.10,ESE,110,16.0,22.0,98,-99.99,,,-99.99,,2013-05-08 21:21:00,
2013-05-08 17:32:00,55.0,54.0,30.10,ESE,110,16.0,22.0,98,-99.99,,,-99.99,,2013-05-08 21:32:00,
2013-05-08 17:43:00,55.0,54.0,30.09,ESE,110,16.0,22.0,98,-99.99,,,-99.99,,2013-05-08 21:43:00,
2013-05-08 17:52:00,55.0,55.0,30.09,ESE,110,18.0,22.0,98,-99.99,,,-99.99,,2013-05-08 21:52:00,
2013-05-08 18:02:00,55.0,55.0,30.09,ESE,110,18.0,22.0,98,-99.99,,,-99.99,,2013-05-08 22:02:00,
2013-05-08 18:12:00,55.0,55.0,30.09,ESE,110,16.0,22.0,98,-99.99,,,-99.99,,2013-05-08 22:12:00,
2013-05-08 18:22:00,55.0,55.0,30.08,ESE,110,16.0,20.0,98,-99.99,,,-99.99,,2013-05-08 22:22:00,
2013-05-08 18:32:00,55.0,55.0,30.08,ESE,110,16.0,20.0,98,-99.99,,,-99.99,,2013-05-08 22:32:00,
2013-05-08 18:42:00,55.0,55.0,30.08,ESE,110,16.0,20.0,98,-99.99,,,-99.99,,2013-05-08 22:42:00,
2013-05-08 18:52:00,56.0,55.0,30.07,ESE,110,16.0,20.0,98,-99.99,,,-99.99,,2013-05-08 22:52:00,
2013-05-08 19:01:00,56.0,55.0,30.07,ESE,110,16.0,20.0,98,-99.99,,,-99.99,,2013-05-08 23:01:00,
2013-05-08 19:11:00,56.0,55.0,30.07,ESE,110,13.0,18.0,98,-99.99,,,-99.99,,2013-05-08 23:11:00,
2013-05-08 19:22:00,56.0,55.0,30.07,ESE,110,13.0,18.0,98,-99.99,,,-99.99,,2013-05-08 23:22:00,
2013-05-08 19:32:00,55.0,55.0,30.07,ESE,110,16.0,20.0,98,-99.99,,,-99.99,,2013-05-08 23:32:00,
2013-05-08 19:41:00,55.0,54.0,30.07,ESE,110,16.0,20.0,99,-99.99,,,-99.99,,2013-05-08 23:41:00,
2013-05-08 19:52:00,54.0,54.0,30.07,ESE,110,13.0,18.0,99,-99.99,,,-99.99,,2013-05-08 23:52:00,
2013-05-08 20:01:00,54.0,54.0,30.07,ESE,110,13.0,20.0,99,-99.99,,,-99.99,,2013-05-09 00:01:00,
2013-05-08 20:11:00,54.0,54.0,30.07,ESE,110,13.0,20.0,99,-99.99,,,-99.99,,2013-05-09 00:11:00,
2013-05-08 20:21:00,53.0,53.0,30.08,ESE,110,11.0,16.0,99,-99.99,,,-99.99,,2013-05-09 00:21:00,
2013-05-08 20:31:00,53.0,53.0,30.08,ESE,110,11.0,16.0,99,-99.99,,,-99.99,,2013-05-09 00:31:00,
2013-05-08 20:42:00,53.0,53.0,30.08,ESE,110,11.0,18.0,99,-99.99,,,-99.99,,2013-05-09 00:42:00,
2013-05-08 20:51:00,53.0,53.0,30.08,ESE,110,11.0,18.0,99,-99.99,,,-99.99,,2013-05-09 00:51:00,
2013-05-08 21:01:00,53.0,53.0,30.08,ESE,110,11.0,13.0,99,-99.99,,,-99.99,,2013-05-09 01:01:00,
2013-05-08 21:11:00,52.0,52.0,30.08,SE,130,11.0,13.0,99,-99.99,,,-99.99,,2013-05-09 01:11:00,
2013-05-08 21:22:00,52.0,52.0,30.08,ESE,120,9.0,11.0,100,-99.99,,,-99.99,,2013-05-09 01:22:00,
2013-05-08 21:32:00,52.0,52.0,30.08,ESE,120,9.0,11.0,100,-99.99,,,-99.99,,2013-05-09 01:32:00,
2013-05-08 21:42:00,52.0,52.0,30.08,ESE,110,7.0,9.0,99,-99.99,,,-99.99,,2013-05-09 01:42:00,
2013-05-08 21:52:00,52.0,52.0,30.08,East,90,4.0,4.0,100,-99.99,,,-99.99,,2013-05-09 01:52:00,
2013-05-08 22:01:00,52.0,52.0,30.08,East,90,4.0,4.0,100,-99.99,,,-99.99,,2013-05-09 02:01:00,
2013-05-08 22:11:00,52.0,52.0,30.09,ENE,70,4.0,7.0,100,-99.99,,,-99.99,,2013-05-09 02:11:00,
2013-05-08 22:21:00,52.0,52.0,30.09,NE,50,4.0,7.0,100,-99.99,,,-99.99,,2013-05-09 02:21:00,
2013-05-08 22:32:00,52.0,52.0,30.09,NE,50,4.0,7.0,100,-99.99,,,-99.99,,2013-05-09 02:32:00,
2013-05-08 22:41:00,52.0,52.0,30.09,NE,50,4.0,7.0,100,-99.99,,,-99.99,,2013-05-09 02:41:00,
2013-05-08 23:01:00,52.0,52.0,30.09,ENE,70,4.0,7.0,100,-99.99,,,-99.99,,2013-05-09 03:01:00,
2013-05-08 23:11:00,52.0,52.0,30.09,ENE,70,4.0,7.0,100,-99.99,,,-99.99,,2013-05-09 03:11:00,
2013-05-08 23:21:00,52.0,52.0,30.09,ENE,70,4.0,7.0,99,-99.99,,,-99.99,,2013-05-09 03:21:00,
2013-05-08 23:32:00,52.0,52.0,30.09,ENE,70,4.0,7.0,99,-99.99,,,-99.99,,2013-05-09 03:32:00,
2013-05-08 23:43:00,52.0,52.0,30.08,ENE,70,4.0,7.0,99,-99.99,,,-99.99,,2013-05-09 03:43:00,
2013-05-08 23:52:00,52.0,52.0,30.08,ENE,70,4.0,4.0,100,-99.99,,,-99.99,,2013-05-09 03:52:00,